Tracking 20472 objects as of 28-Feb-2020
HD Live streaming from Space Station
objects crossing your sky now

CZ-3B DEB

Track CZ-3B DEB now!


NORAD ID: 39337
Int'l Code: 2010-042J
Perigee: 609.0 km
Apogee: 43,059.3 km
Inclination: 25.6 °
Period: 785.7 minutes
Semi major axis: 28205 km
RCS: 0.027 m2 (small)
Launch date: September 4, 2010
Source: People's Republic of China (PRC)
Launch site: Xichang Space Center, China (XSC)

Note: This is SATELLITE DEBRIS
aabbcc
Your satellite tracking list
Your tracking list is empty




NASA's NSSDC Master Catalog

Two Line Element Set (TLE):
1 39337U 10042J   20057.96818045 -.00000243  00000-0  46525-3 0  9992
2 39337  25.6282  13.2537 7525260 323.1850   3.6342  1.83277871 53697
Source of the keplerian elements: AFSPC